TimePST,TemperatureF,Dew PointF,Humidity,Sea Level PressureIn,VisibilityMPH,Wind Direction,Wind SpeedMPH,Gust SpeedMPH,PrecipitationIn,Events,Conditions,WindDirDegrees,DateUTC
12:15 AM,37.4,37.4,100,30.07,7.0,East,3.5,-,N/A,,Clear,90,2013-02-05 08:15:00
12:35 AM,37.4,35.6,93,30.06,7.0,Calm,Calm,-,N/A,,Clear,0,2013-02-05 08:35:00
12:55 AM,37.4,37.4,100,30.06,10.0,East,3.5,-,N/A,,Clear,90,2013-02-05 08:55:00
1:15 AM,41.0,41.0,100,30.06,10.0,ESE,3.5,-,N/A,,Clear,110,2013-02-05 09:15:00
1:35 AM,37.4,35.6,93,30.07,10.0,East,3.5,-,N/A,,Clear,90,2013-02-05 09:35:00
1:55 AM,37.4,35.6,93,30.07,10.0,East,4.6,-,N/A,,Clear,100,2013-02-05 09:55:00
2:15 AM,37.4,35.6,93,30.07,10.0,East,5.8,-,N/A,,Clear,100,2013-02-05 10:15:00
2:35 AM,39.2,37.4,93,30.06,10.0,East,4.6,-,N/A,,Clear,100,2013-02-05 10:35:00
2:55 AM,37.4,35.6,93,30.06,10.0,East,4.6,-,N/A,,Clear,100,2013-02-05 10:55:00
3:15 AM,41.0,39.2,93,30.06,10.0,SE,4.6,-,N/A,,Clear,140,2013-02-05 11:15:00
3:35 AM,39.2,37.4,93,30.06,10.0,SSE,5.8,-,N/A,,Clear,150,2013-02-05 11:35:00
3:55 AM,37.4,35.6,93,30.05,10.0,SSE,9.2,-,N/A,,Clear,150,2013-02-05 11:55:00
4:15 AM,42.8,42.8,100,30.04,10.0,SE,8.1,-,N/A,,Clear,140,2013-02-05 12:15:00
4:35 AM,41.0,39.2,93,30.05,10.0,SSE,3.5,-,N/A,,Clear,160,2013-02-05 12:35:00
4:55 AM,41.0,41.0,100,30.04,10.0,South,5.8,-,N/A,,Clear,170,2013-02-05 12:55:00
5:15 AM,41.0,39.2,93,30.05,7.0,South,6.9,-,N/A,,Clear,170,2013-02-05 13:15:00
5:35 AM,41.0,41.0,100,30.04,7.0,SSE,9.2,-,N/A,,Clear,160,2013-02-05 13:35:00
5:55 AM,41.0,41.0,100,30.05,7.0,SSE,8.1,-,N/A,,Clear,150,2013-02-05 13:55:00
6:15 AM,42.8,41.0,93,30.05,10.0,SE,6.9,-,N/A,,Clear,130,2013-02-05 14:15:00
6:35 AM,42.8,41.0,93,30.05,10.0,ESE,8.1,-,N/A,,Clear,120,2013-02-05 14:35:00
6:55 AM,42.8,41.0,93,30.06,10.0,SE,5.8,-,N/A,,Clear,130,2013-02-05 14:55:00
7:15 AM,41.0,39.2,93,30.06,10.0,SE,5.8,-,N/A,,Clear,130,2013-02-05 15:15:00
7:35 AM,42.8,41.0,93,30.06,10.0,ESE,6.9,-,N/A,,Clear,120,2013-02-05 15:35:00
7:55 AM,42.8,41.0,93,30.07,10.0,ESE,6.9,-,N/A,,Clear,120,2013-02-05 15:55:00
8:15 AM,44.6,41.0,87,30.07,10.0,SE,9.2,-,N/A,,Clear,130,2013-02-05 16:15:00
8:35 AM,44.6,41.0,87,30.08,10.0,SE,9.2,-,N/A,,Clear,140,2013-02-05 16:35:00
8:55 AM,46.4,41.0,81,30.07,10.0,SE,11.5,-,N/A,,Clear,140,2013-02-05 16:55:00
9:15 AM,46.4,42.8,87,30.09,10.0,SE,10.4,-,N/A,,Clear,140,2013-02-05 17:15:00
9:35 AM,48.2,42.8,82,30.09,10.0,SSE,11.5,-,N/A,,Clear,160,2013-02-05 17:35:00
9:55 AM,48.2,42.8,82,30.09,10.0,SSE,10.4,-,N/A,,Clear,150,2013-02-05 17:55:00
10:15 AM,48.2,42.8,82,30.09,10.0,SSE,11.5,-,N/A,,Clear,160,2013-02-05 18:15:00
10:35 AM,50.0,42.8,76,30.09,10.0,SSE,10.4,-,N/A,,Clear,160,2013-02-05 18:35:00
10:55 AM,50.0,42.8,76,30.10,10.0,SSE,10.4,-,N/A,,Clear,150,2013-02-05 18:55:00
11:15 AM,51.8,42.8,71,30.09,10.0,SSE,10.4,-,N/A,,Clear,150,2013-02-05 19:15:00
11:35 AM,51.8,42.8,71,30.09,10.0,SSE,10.4,-,N/A,,Clear,150,2013-02-05 19:35:00
11:55 AM,51.8,42.8,71,30.08,10.0,South,9.2,-,N/A,,Clear,170,2013-02-05 19:55:00
12:15 PM,51.8,42.8,71,30.07,10.0,South,8.1,-,N/A,,Clear,180,2013-02-05 20:15:00
12:35 PM,51.8,42.8,71,30.06,10.0,South,8.1,-,N/A,,Clear,190,2013-02-05 20:35:00
12:55 PM,51.8,42.8,71,30.05,10.0,South,8.1,-,N/A,,Clear,170,2013-02-05 20:55:00
1:15 PM,53.6,42.8,67,30.05,10.0,South,9.2,-,N/A,,Clear,180,2013-02-05 21:15:00
1:35 PM,53.6,42.8,67,30.04,10.0,South,6.9,-,N/A,,Scattered Clouds,190,2013-02-05 21:35:00
1:55 PM,53.6,42.8,67,30.05,10.0,South,5.8,-,N/A,,Mostly Cloudy,170,2013-02-05 21:55:00
2:15 PM,53.6,42.8,67,30.05,10.0,South,6.9,-,N/A,,Overcast,180,2013-02-05 22:15:00
2:35 PM,53.6,42.8,67,30.03,10.0,SE,8.1,-,N/A,,Overcast,130,2013-02-05 22:35:00
2:55 PM,53.6,42.8,67,30.03,10.0,SSE,8.1,-,N/A,,Scattered Clouds,150,2013-02-05 22:55:00
3:15 PM,55.4,42.8,63,30.04,10.0,South,9.2,-,N/A,,Scattered Clouds,180,2013-02-05 23:15:00
3:35 PM,53.6,41.0,62,30.04,10.0,South,4.6,-,N/A,,Scattered Clouds,170,2013-02-05 23:35:00
3:55 PM,55.4,42.8,63,30.04,10.0,South,6.9,-,N/A,,Clear,170,2013-02-05 23:55:00
4:15 PM,53.6,41.0,62,30.05,10.0,South,6.9,-,N/A,,Clear,180,2013-02-06 00:15:00
4:35 PM,53.6,41.0,62,30.05,10.0,SSE,8.1,-,N/A,,Clear,160,2013-02-06 00:35:00
4:55 PM,53.6,41.0,62,30.05,10.0,SSE,6.9,-,N/A,,Clear,160,2013-02-06 00:55:00
5:15 PM,51.8,41.0,67,30.05,10.0,SSE,6.9,-,N/A,,Clear,150,2013-02-06 01:15:00
5:35 PM,50.0,41.0,71,30.05,10.0,SE,5.8,-,N/A,,Clear,130,2013-02-06 01:35:00
6:15 PM,50.0,41.0,71,30.06,10.0,ESE,4.6,-,N/A,,Clear,110,2013-02-06 02:15:00
6:35 PM,50.0,41.0,71,30.06,10.0,ESE,5.8,-,N/A,,Clear,120,2013-02-06 02:35:00
6:55 PM,46.4,41.0,81,30.07,10.0,East,4.6,-,N/A,,Clear,100,2013-02-06 02:55:00
7:15 PM,44.6,39.2,81,30.07,10.0,East,5.8,-,N/A,,Clear,100,2013-02-06 03:15:00
7:35 PM,42.8,39.2,87,30.07,10.0,East,6.9,-,N/A,,Clear,90,2013-02-06 03:35:00
7:55 PM,42.8,41.0,93,30.08,10.0,East,5.8,-,N/A,,Clear,90,2013-02-06 03:55:00
8:15 PM,42.8,39.2,87,30.08,10.0,East,4.6,-,N/A,,Clear,80,2013-02-06 04:15:00
8:35 PM,42.8,39.2,87,30.09,10.0,East,4.6,-,N/A,,Clear,80,2013-02-06 04:35:00
8:55 PM,41.0,37.4,87,30.09,10.0,East,4.6,-,N/A,,Clear,80,2013-02-06 04:55:00
9:15 PM,41.0,37.4,87,30.09,10.0,ENE,5.8,-,N/A,,Clear,70,2013-02-06 05:15:00
9:35 PM,41.0,39.2,93,30.10,10.0,NE,4.6,-,N/A,,Clear,50,2013-02-06 05:35:00
9:55 PM,39.2,37.4,93,30.10,10.0,NNE,3.5,-,N/A,,Clear,30,2013-02-06 05:55:00
10:15 PM,37.4,35.6,93,30.10,10.0,NE,4.6,-,N/A,,Clear,50,2013-02-06 06:15:00
10:35 PM,39.2,37.4,93,30.11,10.0,ENE,5.8,-,N/A,,Clear,70,2013-02-06 06:35:00
10:55 PM,37.4,37.4,100,30.11,10.0,NE,5.8,-,N/A,,Clear,50,2013-02-06 06:55:00
11:15 PM,35.6,35.6,100,30.11,7.0,Calm,Calm,-,N/A,,Clear,0,2013-02-06 07:15:00
11:55 PM,37.4,35.6,93,30.13,7.0,Calm,Calm,-,N/A,,Mostly Cloudy,0,2013-02-06 07:55:00